QPF
0.00 0.01 0.02 0.03 0.03 0.03 0.03 0.02 0.03 0.03 0.02 0.01 0.01 0.01 0.01 0.01 0.00 0.00 0.00 0.00 0.00 0.00 0.01 0.00 0.00 0.01 0.01 0.01 0.02 0.02 0.02 0.01 0.01 0.00 0.00 0.01 0.01 0.01 0.00 0.01 0.01 0.01 0.01
0.00 0.01 0.03 0.04 0.04 0.04 0.04 0.03 0.03 0.02 0.02 0.02 0.02 0.01 0.01 0.01 0.01 0.00 0.00 0.00 0.01 0.01 0.01 0.01 0.01 0.01 0.01 0.01 0.01 0.01 0.01 0.00 0.00 0.00 0.00 0.00 0.01 0.01 0.00 0.00 0.00 0.01 0.00
0.00 0.01 0.03 0.05 0.05 0.04 0.04 0.05 0.04 0.03 0.02 0.03 0.03 0.02 0.01 0.01 0.01 0.00 0.00 0.01 0.01 0.01 0.01 0.01 0.01 0.01 0.01 0.01 0.00 0.00 0.00 0.00 0.00 0.00 0.00 0.00 0.01 0.01 0.00 0.00 0.00 0.00 0.00
0.00 0.01 0.03 0.05 0.07 0.06 0.05 0.05 0.05 0.04 0.04 0.03 0.04 0.03 0.02 0.01 0.01 0.01 0.01 0.01 0.01 0.01 0.01 0.01 0.01 0.01 0.00 0.00 0.00 0.00 0.00 0.00 0.00 0.00 0.00 0.00 0.01 0.01 0.00 0.00 0.00 0.00 0.00
0.01 0.01 0.03 0.05 0.07 0.08 0.08 0.08 0.07 0.06 0.05 0.04 0.04 0.03 0.03 0.02 0.01 0.01 0.01 0.01 0.01 0.01 0.01 0.00 0.00 0.00 0.00 0.00 0.00 0.00 0.00 0.00 0.00 0.00 0.00 0.00 0.00 0.00 0.00 0.00 0.00 0.00 0.00
0.01 0.02 0.04 0.06 0.07 0.08 0.09 0.08 0.08 0.07 0.06 0.05 0.04 0.03 0.02 0.02 0.01 0.01 0.02 0.01 0.01 0.00 0.00 0.00 0.00 0.00 0.00 0.00 0.00 0.00 0.00 0.00 0.00 0.00 0.00 0.00 0.00 0.00 0.00 0.00 0.00 0.00 0.00
0.02 0.02 0.05 0.08 0.09 0.11 0.11 0.10 0.09 0.08 0.07 0.06 0.05 0.04 0.03 0.02 0.02 0.02 0.02 0.02 0.01 0.00 0.00 0.00 0.00 0.00 0.00 0.00 0.00 0.00 0.00 0.00 0.00 0.00 0.00 0.00 0.00 0.01 0.00 0.00 0.00 0.00 0.00
0.02 0.03 0.05 0.09 0.12 0.16 0.17 0.12 0.11 0.10 0.09 0.08 0.07 0.06 0.05 0.03 0.03 0.03 0.02 0.02 0.02 0.01 0.00 0.00 0.00 0.00 0.00 0.00 0.00 0.00 0.00 0.00 0.00 0.00 0.00 0.00 0.00 0.01 0.01 0.01 0.00 0.00 0.00
0.03 0.04 0.06 0.10 0.12 0.16 0.20 0.18 0.14 0.12 0.10 0.10 0.09 0.08 0.06 0.04 0.04 0.03 0.03 0.03 0.02 0.02 0.01 0.01 0.00 0.00 0.00 0.00 0.00 0.00 0.00 0.00 0.00 0.00 0.00 0.00 0.00 0.00 0.01 0.01 0.00 0.00 0.00
0.04 0.05 0.07 0.09 0.11 0.15 0.20 0.19 0.16 0.14 0.12 0.11 0.11 0.09 0.06 0.04 0.03 0.04 0.03 0.03 0.03 0.02 0.01 0.01 0.01 0.01 0.00 0.00 0.00 0.00 0.00 0.00 0.00 0.00 0.00 0.00 0.00 0.00 0.00 0.00 0.00 0.00 0.00
0.05 0.06 0.07 0.10 0.11 0.12 0.18 0.18 0.16 0.14 0.14 0.11 0.11 0.10 0.07 0.05 0.04 0.04 0.04 0.03 0.03 0.03 0.01 0.01 0.01 0.01 0.00 0.00 0.00 0.00 0.00 0.00 0.00 0.00 0.00 0.00 0.00 0.00 0.00 0.00 0.00 0.00 0.00
0.07 0.07 0.08 0.10 0.11 0.11 0.14 0.19 0.18 0.16 0.15 0.13 0.12 0.12 0.09 0.06 0.06 0.05 0.04 0.02 0.03 0.03 0.02 0.01 0.01 0.01 0.00 0.00 0.00 0.00 0.00 0.00 0.00 0.00 0.00 0.00 0.00 0.00 0.00 0.00 0.00 0.00 0.00
0.10 0.11 0.11 0.11 0.11 0.11 0.12 0.16 0.18 0.16 0.15 0.13 0.12 0.12 0.10 0.08 0.06 0.06 0.05 0.04 0.03 0.02 0.02 0.01 0.01 0.01 0.00 0.00 0.00 0.00 0.00 0.00 0.00 0.00 0.00 0.00 0.00 0.00 0.00 0.00 0.00 0.00 0.00
0.10 0.11 0.12 0.13 0.12 0.11 0.12 0.14 0.14 0.14 0.14 0.11 0.09 0.10 0.10 0.08 0.06 0.05 0.03 0.03 0.03 0.03 0.02 0.01 0.01 0.00 0.00 0.00 0.00 0.00 0.00 0.00 0.00 0.00 0.00 0.00 0.00 0.00 0.00 0.00 0.00 0.00 0.01
0.10 0.11 0.13 0.14 0.14 0.12 0.13 0.17 0.15 0.10 0.11 0.11 0.10 0.07 0.07 0.06 0.05 0.05 0.04 0.03 0.03 0.03 0.03 0.02 0.01 0.00 0.00 0.00 0.00 0.00 0.00 0.00 0.00 0.00 0.00 0.00 0.00 0.00 0.00 0.00 0.00 0.01 0.01
0.09 0.14 0.17 0.15 0.13 0.12 0.13 0.18 0.17 0.10 0.09 0.11 0.11 0.08 0.06 0.05 0.03 0.04 0.05 0.04 0.03 0.03 0.03 0.03 0.02 0.01 0.00 0.00 0.00 0.00 0.00 0.00 0.00 0.00 0.00 0.00 0.00 0.00 0.00 0.00 0.01 0.01 0.01
0.09 0.14 0.21 0.20 0.15 0.12 0.12 0.15 0.17 0.12 0.09 0.10 0.10 0.10 0.08 0.06 0.04 0.03 0.04 0.04 0.03 0.03 0.03 0.03 0.03 0.02 0.01 0.00 0.00 0.00 0.00 0.00 0.00 0.00 0.00 0.00 0.00 0.00 0.00 0.00 0.00 0.01 0.01
0.08 0.12 0.20 0.24 0.19 0.15 0.12 0.13 0.14 0.10 0.09 0.11 0.10 0.10 0.10 0.07 0.06 0.04 0.03 0.03 0.04 0.04 0.03 0.03 0.03 0.03 0.02 0.01 0.00 0.00 0.00 0.00 0.00 0.00 0.00 0.00 0.00 0.00 0.00 0.00 0.00 0.00 0.00
0.07 0.10 0.17 0.24 0.20 0.18 0.16 0.12 0.12 0.09 0.09 0.11 0.10 0.09 0.10 0.09 0.08 0.07 0.05 0.04 0.04 0.04 0.04 0.04 0.03 0.03 0.03 0.01 0.01 0.00 0.00 0.00 0.00 0.00 0.00 0.00 0.00 0.00 0.00 0.00 0.00 0.00 0.00
0.09 0.11 0.14 0.20 0.21 0.22 0.23 0.16 0.13 0.11 0.09 0.11 0.12 0.09 0.09 0.10 0.08 0.09 0.07 0.06 0.06 0.06 0.06 0.05 0.05 0.05 0.04 0.02 0.01 0.01 0.00 0.00 0.00 0.00 0.00 0.00 0.00 0.00 0.00 0.00 0.00 0.00 0.00
0.09 0.09 0.10 0.12 0.16 0.21 0.28 0.21 0.15 0.12 0.11 0.11 0.13 0.12 0.10 0.11 0.10 0.09 0.09 0.07 0.06 0.06 0.06 0.07 0.07 0.06 0.06 0.05 0.03 0.02 0.01 0.00 0.00 0.00 0.00 0.00 0.00 0.00 0.00 0.00 0.00 0.00 0.00
0.08 0.08 0.08 0.08 0.08 0.13 0.23 0.26 0.19 0.12 0.09 0.10 0.11 0.14 0.13 0.12 0.11 0.09 0.09 0.09 0.07 0.07 0.08 0.08 0.09 0.09 0.08 0.07 0.06 0.03 0.02 0.01 0.01 0.00 0.00 0.00 0.00 0.00 0.00 0.00 0.00 0.00 0.00
0.07 0.08 0.11 0.10 0.08 0.10 0.16 0.20 0.21 0.18 0.13 0.12 0.11 0.12 0.12 0.13 0.11 0.09 0.07 0.09 0.10 0.07 0.07 0.08 0.09 0.10 0.09 0.08 0.08 0.07 0.04 0.02 0.01 0.00 0.00 0.00 0.00 0.00 0.00 0.00 0.00 0.00 0.00
0.07 0.07 0.10 0.12 0.12 0.10 0.13 0.17 0.19 0.16 0.12 0.11 0.10 0.09 0.11 0.12 0.11 0.09 0.08 0.06 0.07 0.08 0.06 0.05 0.07 0.09 0.11 0.10 0.08 0.07 0.06 0.04 0.02 0.01 0.00 0.00 0.00 0.00 0.00 0.00 0.00 0.00 0.00
0.08 0.08 0.09 0.09 0.11 0.14 0.15 0.16 0.20 0.18 0.12 0.10 0.09 0.10 0.12 0.13 0.11 0.09 0.08 0.08 0.07 0.07 0.07 0.06 0.06 0.07 0.09 0.10 0.10 0.07 0.05 0.05 0.04 0.02 0.01 0.01 0.01 0.00 0.00 0.00 0.00 0.00 0.00
0.08 0.08 0.07 0.07 0.07 0.10 0.15 0.18 0.20 0.21 0.17 0.14 0.13 0.11 0.13 0.14 0.12 0.10 0.08 0.09 0.09 0.09 0.08 0.08 0.07 0.07 0.08 0.09 0.09 0.08 0.07 0.05 0.04 0.03 0.02 0.02 0.01 0.01 0.01 0.00 0.00 0.00 0.00
MSLP
1014.12 1013.78 1013.45 1013.17 1012.97 1012.85 1012.82 1012.88 1013.02 1013.22 1013.47 1013.75 1014.04 1014.34 1014.64 1014.93 1015.19 1015.42 1015.61 1015.76 1015.87 1015.95 1016.02 1016.08 1016.15 1016.23 1016.33 1016.44 1016.56 1016.69 1016.82 1016.94 1017.06 1017.17 1017.28 1017.39 1017.47 1017.53 1017.56 1017.55 1017.53 1017.49 1017.45
1014.41 1014.07 1013.72 1013.40 1013.14 1012.96 1012.87 1012.88 1012.98 1013.17 1013.41 1013.70 1014.02 1014.35 1014.68 1014.98 1015.26 1015.50 1015.70 1015.85 1015.96 1016.05 1016.13 1016.22 1016.31 1016.42 1016.54 1016.68 1016.82 1016.96 1017.10 1017.23 1017.37 1017.51 1017.65 1017.78 1017.89 1017.97 1018.01 1018.01 1017.97 1017.92 1017.87
1014.59 1014.26 1013.91 1013.57 1013.28 1013.06 1012.93 1012.91 1012.98 1013.15 1013.40 1013.70 1014.03 1014.37 1014.71 1015.02 1015.29 1015.52 1015.71 1015.86 1015.98 1016.10 1016.21 1016.33 1016.47 1016.62 1016.78 1016.94 1017.09 1017.23 1017.36 1017.50 1017.64 1017.78 1017.94 1018.09 1018.23 1018.34 1018.41 1018.43 1018.41 1018.37 1018.32
1014.65 1014.36 1014.04 1013.70 1013.40 1013.16 1013.01 1012.97 1013.03 1013.19 1013.43 1013.73 1014.07 1014.41 1014.74 1015.04 1015.30 1015.52 1015.70 1015.85 1015.99 1016.13 1016.29 1016.47 1016.66 1016.87 1017.07 1017.25 1017.40 1017.53 1017.64 1017.74 1017.86 1017.99 1018.15 1018.32 1018.48 1018.63 1018.73 1018.80 1018.81 1018.80 1018.78
1014.65 1014.41 1014.12 1013.81 1013.51 1013.27 1013.12 1013.06 1013.10 1013.25 1013.48 1013.78 1014.10 1014.44 1014.76 1015.04 1015.29 1015.51 1015.69 1015.85 1016.02 1016.21 1016.43 1016.67 1016.93 1017.18 1017.42 1017.61 1017.76 1017.86 1017.93 1017.98 1018.05 1018.15 1018.29 1018.46 1018.65 1018.83 1018.98 1019.09 1019.16 1019.19 1019.21
1014.62 1014.42 1014.18 1013.90 1013.63 1013.40 1013.23 1013.16 1013.18 1013.31 1013.52 1013.80 1014.11 1014.43 1014.74 1015.03 1015.28 1015.50 1015.70 1015.90 1016.11 1016.35 1016.63 1016.94 1017.26 1017.56 1017.83 1018.03 1018.16 1018.22 1018.24 1018.23 1018.24 1018.29 1018.40 1018.56 1018.76 1018.97 1019.17 1019.33 1019.46 1019.54 1019.59
1014.59 1014.44 1014.24 1013.99 1013.74 1013.51 1013.34 1013.24 1013.24 1013.33 1013.51 1013.76 1014.05 1014.37 1014.68 1014.98 1015.25 1015.50 1015.73 1015.98 1016.25 1016.55 1016.89 1017.25 1017.62 1017.96 1018.25 1018.45 1018.56 1018.59 1018.55 1018.49 1018.44 1018.44 1018.51 1018.66 1018.86 1019.09 1019.32 1019.54 1019.71 1019.83 1019.92
1014.58 1014.46 1014.28 1014.07 1013.83 1013.60 1013.42 1013.29 1013.25 1013.29 1013.43 1013.64 1013.91 1014.22 1014.54 1014.86 1015.18 1015.48 1015.78 1016.08 1016.41 1016.77 1017.16 1017.56 1017.97 1018.33 1018.63 1018.83 1018.92 1018.92 1018.85 1018.75 1018.66 1018.62 1018.66 1018.79 1018.99 1019.24 1019.50 1019.74 1019.95 1020.10 1020.21
1014.55 1014.44 1014.29 1014.09 1013.87 1013.64 1013.43 1013.28 1013.19 1013.19 1013.27 1013.44 1013.69 1013.99 1014.33 1014.69 1015.06 1015.43 1015.80 1016.17 1016.55 1016.96 1017.39 1017.82 1018.23 1018.60 1018.90 1019.09 1019.18 1019.17 1019.09 1018.98 1018.87 1018.83 1018.86 1018.98 1019.18 1019.44 1019.72 1019.98 1020.21 1020.38 1020.49
1014.46 1014.35 1014.21 1014.03 1013.82 1013.60 1013.38 1013.20 1013.07 1013.02 1013.05 1013.18 1013.40 1013.70 1014.06 1014.47 1014.90 1015.33 1015.77 1016.21 1016.65 1017.09 1017.53 1017.96 1018.37 1018.73 1019.02 1019.21 1019.31 1019.31 1019.25 1019.16 1019.08 1019.05 1019.10 1019.23 1019.44 1019.71 1019.99 1020.27 1020.50 1020.67 1020.78
1014.27 1014.16 1014.03 1013.87 1013.68 1013.47 1013.25 1013.06 1012.90 1012.81 1012.80 1012.89 1013.08 1013.37 1013.75 1014.20 1014.68 1015.19 1015.69 1016.19 1016.66 1017.12 1017.56 1017.98 1018.37 1018.71 1018.98 1019.18 1019.29 1019.34 1019.32 1019.28 1019.25 1019.27 1019.35 1019.51 1019.74 1020.01 1020.30 1020.57 1020.80 1020.97 1021.07
1013.96 1013.84 1013.72 1013.58 1013.42 1013.24 1013.05 1012.86 1012.69 1012.58 1012.54 1012.59 1012.76 1013.04 1013.42 1013.90 1014.43 1014.98 1015.54 1016.08 1016.59 1017.06 1017.49 1017.88 1018.24 1018.55 1018.82 1019.02 1019.16 1019.25 1019.30 1019.33 1019.38 1019.45 1019.59 1019.78 1020.03 1020.31 1020.60 1020.86 1021.08 1021.24 1021.34
1013.52 1013.39 1013.27 1013.16 1013.05 1012.91 1012.77 1012.61 1012.46 1012.34 1012.28 1012.31 1012.45 1012.71 1013.09 1013.57 1014.12 1014.72 1015.32 1015.89 1016.42 1016.90 1017.33 1017.70 1018.03 1018.33 1018.58 1018.79 1018.97 1019.11 1019.23 1019.34 1019.45 1019.60 1019.78 1020.01 1020.27 1020.55 1020.83 1021.08 1021.29 1021.44 1021.54
1012.98 1012.84 1012.73 1012.65 1012.58 1012.51 1012.42 1012.32 1012.21 1012.10 1012.03 1012.04 1012.15 1012.38 1012.73 1013.21 1013.77 1014.38 1015.01 1015.61 1016.17 1016.66 1017.09 1017.47 1017.79 1018.08 1018.33 1018.56 1018.77 1018.96 1019.14 1019.32 1019.50 1019.70 1019.92 1020.16 1020.42 1020.69 1020.95 1021.18 1021.38 1021.53 1021.63
1012.39 1012.22 1012.12 1012.07 1012.05 1012.04 1012.02 1011.98 1011.92 1011.84 1011.78 1011.76 1011.84 1012.03 1012.34 1012.78 1013.33 1013.95 1014.59 1015.22 1015.81 1016.34 1016.80 1017.20 1017.54 1017.85 1018.12 1018.38 1018.62 1018.85 1019.08 1019.30 1019.53 1019.75 1019.99 1020.23 1020.47 1020.72 1020.94 1021.15 1021.32 1021.46 1021.58
1011.79 1011.60 1011.48 1011.45 1011.47 1011.51 1011.56 1011.58 1011.57 1011.53 1011.48 1011.45 1011.49 1011.63 1011.89 1012.28 1012.79 1013.39 1014.05 1014.71 1015.35 1015.93 1016.45 1016.91 1017.30 1017.65 1017.97 1018.26 1018.54 1018.81 1019.07 1019.32 1019.56 1019.79 1020.02 1020.23 1020.44 1020.64 1020.82 1020.98 1021.13 1021.26 1021.38
1011.23 1011.00 1010.86 1010.82 1010.85 1010.94 1011.04 1011.12 1011.15 1011.15 1011.11 1011.07 1011.07 1011.15 1011.35 1011.69 1012.15 1012.73 1013.38 1014.07 1014.76 1015.42 1016.02 1016.56 1017.04 1017.46 1017.84 1018.18 1018.51 1018.81 1019.09 1019.35 1019.59 1019.82 1020.02 1020.20 1020.36 1020.51 1020.64 1020.75 1020.87 1020.98 1021.09
1010.74 1010.45 1010.26 1010.19 1010.22 1010.32 1010.45 1010.57 1010.65 1010.68 1010.65 1010.60 1010.57 1010.60 1010.74 1011.01 1011.41 1011.95 1012.60 1013.31 1014.06 1014.79 1015.48 1016.13 1016.71 1017.22 1017.68 1018.09 1018.47 1018.80 1019.11 1019.38 1019.63 1019.84 1020.02 1020.16 1020.28 1020.37 1020.45 1020.52 1020.59 1020.68 1020.78
1010.34 1009.97 1009.71 1009.59 1009.58 1009.67 1009.81 1009.95 1010.07 1010.12 1010.11 1010.07 1010.01 1010.00 1010.07 1010.27 1010.62 1011.11 1011.74 1012.46 1013.25 1014.05 1014.84 1015.58 1016.27 1016.88 1017.43 1017.92 1018.35 1018.73 1019.07 1019.37 1019.62 1019.83 1020.00 1020.13 1020.22 1020.28 1020.32 1020.35 1020.39 1020.44 1020.52
1010.03 1009.56 1009.21 1009.00 1008.94 1008.99 1009.11 1009.27 1009.41 1009.49 1009.51 1009.47 1009.40 1009.36 1009.39 1009.53 1009.82 1010.26 1010.85 1011.57 1012.38 1013.22 1014.08 1014.91 1015.69 1016.40 1017.03 1017.59 1018.09 1018.53 1018.91 1019.25 1019.53 1019.77 1019.96 1020.09 1020.19 1020.24 1020.26 1020.27 1020.28 1020.31 1020.37
1009.79 1009.21 1008.75 1008.45 1008.30 1008.29 1008.39 1008.54 1008.69 1008.80 1008.85 1008.83 1008.78 1008.73 1008.73 1008.83 1009.07 1009.46 1010.01 1010.70 1011.50 1012.37 1013.26 1014.14 1014.98 1015.76 1016.46 1017.09 1017.65 1018.14 1018.58 1018.97 1019.31 1019.61 1019.84 1020.03 1020.15 1020.23 1020.27 1020.28 1020.28 1020.30 1020.34
1009.63 1008.93 1008.35 1007.93 1007.68 1007.60 1007.64 1007.77 1007.92 1008.06 1008.14 1008.17 1008.15 1008.12 1008.12 1008.20 1008.40 1008.75 1009.26 1009.91 1010.68 1011.53 1012.42 1013.32 1014.18 1014.99 1015.74 1016.41 1017.02 1017.57 1018.07 1018.53 1018.94 1019.31 1019.62 1019.87 1020.07 1020.20 1020.28 1020.32 1020.34 1020.36 1020.39
1009.55 1008.73 1008.02 1007.47 1007.10 1006.92 1006.90 1006.98 1007.12 1007.27 1007.39 1007.46 1007.49 1007.50 1007.54 1007.63 1007.82 1008.15 1008.62 1009.23 1009.95 1010.77 1011.63 1012.50 1013.35 1014.16 1014.91 1015.60 1016.23 1016.83 1017.38 1017.90 1018.39 1018.85 1019.25 1019.60 1019.88 1020.09 1020.24 1020.33 1020.39 1020.43 1020.48
1009.56 1008.61 1007.76 1007.08 1006.58 1006.29 1006.16 1006.18 1006.28 1006.42 1006.56 1006.68 1006.76 1006.84 1006.92 1007.06 1007.28 1007.61 1008.07 1008.65 1009.33 1010.10 1010.91 1011.74 1012.55 1013.32 1014.05 1014.73 1015.37 1015.98 1016.57 1017.15 1017.70 1018.23 1018.73 1019.17 1019.54 1019.84 1020.07 1020.24 1020.35 1020.44 1020.52
1009.67 1008.59 1007.61 1006.78 1006.14 1005.70 1005.46 1005.37 1005.40 1005.51 1005.64 1005.78 1005.92 1006.06 1006.21 1006.42 1006.69 1007.06 1007.54 1008.12 1008.79 1009.52 1010.29 1011.06 1011.82 1012.54 1013.22 1013.87 1014.49 1015.10 1015.70 1016.31 1016.91 1017.50 1018.07 1018.59 1019.05 1019.44 1019.75 1019.99 1020.18 1020.33 1020.45
1009.88 1008.68 1007.56 1006.59 1005.79 1005.20 1004.80 1004.58 1004.50 1004.52 1004.62 1004.75 1004.92 1005.11 1005.34 1005.63 1005.99 1006.43 1006.96 1007.57 1008.26 1008.98 1009.72 1010.46 1011.17 1011.84 1012.47 1013.08 1013.66 1014.25 1014.84 1015.45 1016.08 1016.70 1017.31 1017.89 1018.42 1018.89 1019.28 1019.60 1019.86 1020.08 1020.26
Thickness
5759 5762 5761 5762 5762 5762 5761 5761 5760 5759 5757 5756 5755 5754 5753 5751 5750 5748 5747 5746 5745 5744 5743 5742 5741 5740 5739 5739 5738 5737 5736 5735 5734 5733 5732 5731 5731 5730 5729 5728 5729 5727 5724
5754 5757 5756 5756 5757 5758 5757 5757 5756 5755 5754 5753 5752 5751 5750 5749 5747 5746 5745 5743 5742 5741 5741 5739 5738 5737 5736 5735 5734 5733 5732 5731 5730 5730 5729 5728 5727 5726 5725 5725 5725 5723 5721
5749 5751 5751 5751 5751 5752 5753 5752 5752 5751 5750 5749 5748 5748 5747 5746 5744 5743 5742 5741 5740 5739 5738 5737 5735 5734 5733 5732 5731 5730 5729 5728 5727 5727 5727 5727 5724 5723 5722 5721 5720 5719 5718
5742 5744 5745 5745 5745 5747 5748 5748 5747 5747 5746 5745 5745 5744 5743 5743 5742 5740 5739 5738 5737 5736 5735 5734 5732 5731 5729 5728 5727 5726 5726 5725 5724 5725 5727 5726 5723 5719 5719 5718 5717 5715 5714
5734 5736 5738 5738 5740 5741 5742 5743 5742 5742 5742 5742 5741 5740 5740 5739 5738 5737 5736 5735 5734 5733 5732 5730 5729 5727 5726 5725 5724 5723 5722 5721 5721 5723 5723 5722 5720 5716 5715 5714 5713 5712 5710
5725 5728 5730 5731 5733 5735 5736 5737 5737 5737 5737 5737 5737 5736 5736 5735 5735 5734 5733 5732 5731 5729 5728 5727 5725 5724 5722 5721 5720 5719 5718 5718 5720 5721 5720 5719 5716 5713 5712 5711 5709 5708 5707
5717 5720 5723 5724 5726 5728 5729 5731 5732 5732 5732 5732 5732 5732 5732 5731 5731 5730 5729 5728 5727 5726 5724 5723 5721 5720 5719 5718 5717 5716 5715 5715 5718 5718 5716 5715 5712 5710 5709 5707 5706 5704 5703
5707 5711 5715 5717 5719 5721 5723 5725 5726 5727 5727 5728 5728 5727 5727 5727 5726 5726 5725 5724 5722 5721 5720 5719 5718 5716 5715 5714 5713 5712 5711 5712 5713 5714 5713 5711 5708 5707 5705 5704 5702 5701 5699
5696 5702 5706 5710 5712 5714 5717 5719 5720 5721 5722 5722 5723 5723 5722 5722 5722 5721 5720 5719 5718 5717 5716 5715 5714 5713 5712 5711 5709 5709 5708 5708 5711 5710 5709 5708 5704 5703 5702 5700 5699 5697 5696
5686 5691 5697 5701 5705 5709 5711 5713 5714 5715 5716 5717 5717 5718 5717 5717 5716 5716 5715 5715 5714 5713 5712 5711 5710 5709 5708 5707 5706 5705 5704 5705 5708 5706 5706 5704 5701 5700 5698 5697 5695 5694 5692
5675 5681 5687 5693 5698 5701 5705 5707 5708 5709 5710 5711 5711 5712 5712 5712 5712 5711 5711 5710 5709 5708 5707 5706 5706 5704 5703 5702 5701 5701 5701 5704 5705 5704 5702 5699 5697 5696 5695 5693 5691 5690 5688
5664 5671 5677 5683 5688 5693 5698 5701 5703 5704 5705 5706 5708 5707 5708 5708 5708 5707 5706 5705 5704 5703 5702 5701 5701 5700 5699 5699 5697 5697 5699 5701 5701 5700 5698 5695 5694 5693 5691 5689 5688 5686 5685
5653 5661 5667 5673 5679 5684 5689 5694 5697 5699 5700 5701 5703 5704 5704 5703 5703 5702 5700 5699 5699 5698 5698 5697 5696 5697 5698 5698 5697 5696 5697 5698 5697 5696 5694 5691 5690 5689 5687 5686 5684 5683 5681
5644 5651 5657 5663 5670 5676 5681 5686 5690 5693 5695 5696 5698 5698 5699 5699 5698 5698 5697 5696 5696 5695 5696 5695 5695 5695 5695 5695 5695 5694 5694 5694 5693 5693 5691 5688 5686 5685 5684 5682 5681 5680 5678
5635 5643 5648 5654 5661 5668 5673 5677 5682 5686 5689 5691 5691 5692 5694 5694 5694 5694 5693 5692 5692 5692 5692 5692 5692 5692 5692 5691 5691 5691 5690 5690 5689 5688 5687 5684 5683 5681 5680 5679 5677 5676 5675
5627 5634 5640 5646 5653 5660 5665 5669 5674 5678 5680 5683 5684 5686 5687 5688 5689 5688 5688 5688 5688 5687 5688 5688 5688 5688 5687 5687 5687 5687 5686 5685 5685 5684 5684 5681 5679 5678 5676 5675 5674 5673 5671
5618 5625 5631 5637 5644 5651 5656 5661 5666 5669 5672 5675 5677 5679 5681 5682 5682 5682 5683 5682 5682 5682 5682 5682 5682 5682 5682 5682 5682 5682 5682 5682 5681 5680 5680 5679 5676 5674 5672 5671 5670 5669 5667
5608 5615 5622 5629 5635 5642 5647 5652 5657 5660 5664 5667 5670 5672 5673 5675 5676 5676 5677 5677 5677 5676 5676 5677 5677 5677 5677 5676 5677 5677 5677 5676 5676 5676 5675 5674 5673 5671 5669 5667 5666 5664 5663
5600 5606 5613 5619 5626 5632 5637 5642 5647 5651 5654 5658 5661 5664 5666 5667 5668 5669 5670 5671 5671 5671 5671 5671 5671 5672 5671 5671 5671 5671 5672 5672 5672 5671 5671 5670 5669 5667 5666 5664 5662 5660 5659
5593 5598 5605 5610 5616 5621 5627 5631 5637 5641 5646 5649 5653 5657 5659 5660 5661 5661 5662 5663 5664 5664 5664 5665 5665 5665 5666 5665 5665 5664 5665 5666 5666 5666 5666 5665 5664 5663 5662 5660 5658 5657 5655
5585 5591 5596 5602 5607 5612 5617 5622 5628 5632 5636 5640 5644 5649 5651 5652 5654 5654 5655 5656 5658 5659 5659 5659 5659 5658 5658 5658 5657 5655 5657 5659 5661 5661 5661 5661 5660 5658 5657 5656 5655 5653 5651
5579 5583 5588 5593 5598 5603 5608 5613 5618 5623 5627 5631 5636 5639 5642 5644 5646 5647 5648 5650 5651 5652 5651 5652 5652 5651 5652 5652 5652 5649 5648 5650 5654 5655 5655 5654 5654 5653 5652 5651 5649 5648 5646
5573 5576 5580 5585 5590 5595 5600 5604 5608 5611 5615 5620 5625 5628 5633 5635 5637 5639 5640 5642 5643 5645 5646 5646 5646 5645 5645 5645 5646 5646 5645 5647 5649 5649 5649 5648 5648 5647 5646 5644 5643 5642 5640
5565 5568 5573 5577 5582 5587 5592 5596 5600 5605 5610 5614 5617 5621 5625 5627 5629 5631 5632 5634 5635 5637 5638 5639 5640 5639 5639 5638 5639 5642 5644 5645 5641 5641 5641 5642 5641 5640 5639 5638 5637 5635 5633
5558 5561 5565 5569 5573 5578 5583 5588 5592 5597 5602 5606 5609 5613 5616 5618 5620 5622 5624 5626 5627 5629 5630 5631 5631 5632 5633 5634 5634 5634 5633 5634 5637 5636 5635 5635 5633 5633 5632 5632 5631 5629 5627
5552 5554 5556 5560 5564 5569 5574 5580 5584 5589 5593 5596 5600 5604 5607 5610 5612 5614 5616 5618 5619 5621 5623 5623 5623 5624 5626 5627 5628 5628 5628 5628 5630 5629 5629 5628 5627 5627 5625 5624 5624 5622 5620